TimeEDT,TemperatureF,Dew PointF,Humidity,Sea Level PressureIn,VisibilityMPH,Wind Direction,Wind SpeedMPH,Gust SpeedMPH,PrecipitationIn,Events,Conditions,WindDirDegrees,DateUTC
12:53 AM,39.0,35.1,86,30.26,10.0,ENE,3.5,-,N/A,,Clear,70,2013-03-15 04:53:00
1:53 AM,37.9,34.0,86,30.25,10.0,Calm,Calm,-,N/A,,Clear,0,2013-03-15 05:53:00
2:53 AM,35.6,33.8,93,30.24,10.0,Calm,Calm,-,N/A,,Clear,0,2013-03-15 06:53:00
3:53 AM,34.0,33.1,96,30.22,10.0,Calm,Calm,-,N/A,,Clear,0,2013-03-15 07:53:00
4:53 AM,33.8,32.0,93,30.21,10.0,Calm,Calm,-,N/A,,Clear,0,2013-03-15 08:53:00
5:53 AM,30.9,30.0,96,30.21,10.0,Calm,Calm,-,N/A,,Clear,0,2013-03-15 09:53:00
6:53 AM,30.9,30.0,96,30.21,10.0,Calm,Calm,-,N/A,,Clear,0,2013-03-15 10:53:00
7:53 AM,30.2,28.4,93,30.21,6.0,Calm,Calm,-,N/A,,Clear,0,2013-03-15 11:53:00
8:53 AM,33.1,30.9,92,30.21,10.0,Calm,Calm,-,N/A,,Clear,0,2013-03-15 12:53:00
9:53 AM,39.9,36.0,86,30.19,10.0,SSE,3.5,-,N/A,,Clear,160,2013-03-15 13:53:00
10:53 AM,48.9,34.0,56,30.17,10.0,WSW,8.1,-,N/A,,Clear,250,2013-03-15 14:53:00
11:53 AM,55.9,34.0,44,30.15,10.0,SSW,9.2,-,N/A,,Clear,210,2013-03-15 15:53:00
12:53 PM,62.1,36.0,38,30.12,10.0,SW,8.1,33.4,N/A,,Clear,230,2013-03-15 16:53:00
1:53 PM,66.0,37.9,36,30.09,10.0,Variable,3.5,-,N/A,,Clear,0,2013-03-15 17:53:00
2:53 PM,71.1,41.0,34,30.04,10.0,SW,9.2,-,N/A,,Clear,230,2013-03-15 18:53:00
3:53 PM,72.0,41.0,33,30.00,10.0,WSW,10.4,19.6,N/A,,Clear,240,2013-03-15 19:53:00
4:53 PM,75.0,41.0,29,29.97,10.0,West,9.2,24.2,N/A,,Clear,260,2013-03-15 20:53:00
5:53 PM,73.9,41.0,30,29.96,10.0,WSW,8.1,21.9,N/A,,Clear,250,2013-03-15 21:53:00
6:53 PM,73.4,39.2,29,29.97,10.0,WSW,6.9,21.9,N/A,,Clear,250,2013-03-15 22:53:00
7:53 PM,70.0,41.0,35,29.96,10.0,WSW,3.5,-,N/A,,Clear,240,2013-03-15 23:53:00
8:53 PM,66.9,41.0,39,29.97,10.0,SW,3.5,-,N/A,,Clear,230,2013-03-16 00:53:00
9:53 PM,64.9,42.1,43,29.97,10.0,SW,4.6,-,N/A,,Clear,220,2013-03-16 01:53:00
10:53 PM,63.0,42.1,46,29.97,10.0,Calm,Calm,-,N/A,,Clear,0,2013-03-16 02:53:00
11:53 PM,61.0,42.1,50,29.96,10.0,SW,4.6,-,N/A,,Clear,220,2013-03-16 03:53:00